Home > Weather > Opole > Past weeks

Flag for Poland Past Weather in Opole, Poland — Yesterday and Last 2 Weeks

Now
82 °F

Passing clouds.


Feels Like: 83 °F
Forecast: 66 / 83 °F
Wind: 5 mph from Northeast

Location: Wroclaw Ii

Current Time: Jul 25, 2016 at 6:06:13 PM

Latest Report: Jul 25, 2016 at 5:30 PM


Visibility: N/A

Pressure: 30.01 "Hg

Humidity: 51%

Dew Point: 63 °F

Location of OpoleLocation

Past Weather in Opole — Graph

°F

Opole Temperature Yesterday

Maximum temperature yesterday: 75 °F (at 2:30 PM)
Minimum temperature yesterday: 59 °F (at 5:30 AM)
Average temperature yesterday: 68 °F

High & Low Weather Summary for the Past Weeks

 TemperatureHumidityPressure
High93 °F (Jul 11, 5:00 PM)100% (Jul 13, 12:30 AM)30.24 "Hg (Jul 13, 12:30 AM)
Low52 °F (Jul 14, 8:30 PM)30% (Jul 11, 5:00 PM)29.62 "Hg (Jul 14, 11:30 AM)
Average67 °F75%30.01 "Hg
* Reported Jul 10 5:00 PM — Jul 25 5:00 PM, Opole, Weather by CustomWeather, © 2016

Note: Actual official high and low records may vary slightly from our data, if they occured in-between our weather recording intervals... More about our weather records

Advertising

Opole Weather History for the Previous 24 Hours

Scroll right to see more
 ConditionsComfort  
Time TempWeatherWind HumidityBarometerVisibility
5:00 PM
Mon, Jul 25
81 °FPassing clouds.7 mph54%30.01 "HgN/A
4:30 PM81 °FPassing clouds.5 mph54%30.01 "HgN/A
4:00 PM82 °FPassing clouds.6 mph55%30.01 "HgN/A
3:30 PM82 °FPassing clouds.8 mph55%30.01 "HgN/A
3:00 PM82 °FPassing clouds.2 mph51%30.01 "HgN/A
2:30 PM82 °FPassing clouds.5 mph55%30.04 "HgN/A
2:00 PM81 °FPassing clouds.5 mph54%30.04 "HgN/A
1:30 PM81 °FPassing clouds.5 mph62%30.04 "HgN/A
1:00 PM79 °FPassing clouds.5 mph58%30.04 "HgN/A
12:30 PM79 °FPassing clouds.6 mph58%30.04 "HgN/A
12:00 PM77 °FPassing clouds.6 mph65%30.04 "HgN/A
11:30 AM77 °FPassing clouds.6 mph65%30.04 "HgN/A
11:00 AM75 °FPassing clouds.8 mph74%30.04 "HgN/A
10:30 AM73 °FPassing clouds.6 mph83%30.04 "HgN/A
10:00 AM72 °FPassing clouds.8 mph83%30.04 "HgN/A
9:30 AM68 °FPassing clouds.5 mph94%30.07 "HgN/A
9:00 AM68 °FClear.6 mph94%30.07 "Hg5 mi
8:30 AM66 °FClear.8 mph100%30.04 "Hg5 mi
8:00 AM66 °FClear.6 mph100%30.04 "Hg5 mi
7:30 AM64 °FSprinkles. Fog.5 mph100%30.07 "Hg2 mi
7:00 AM64 °FSprinkles. Fog.3 mph100%30.07 "Hg2 mi
6:30 AM64 °FSprinkles. Fog.3 mph94%30.07 "Hg2 mi
6:00 AM64 °FSprinkles. Fog.6 mph94%30.07 "Hg3 mi
5:30 AM64 °FRain showers. Fog.8 mph100%30.07 "Hg1 mi
5:00 AM64 °FRain showers. Fog.13 mph100%30.07 "Hg2 mi
4:30 AM66 °FRain showers. Passing clouds.7 mph94%30.07 "Hg4 mi
4:00 AM66 °FClear.5 mph88%30.07 "Hg6 mi
3:30 AM66 °FClear.7 mph94%30.07 "Hg6 mi
3:00 AM66 °FClear.5 mph94%30.07 "Hg6 mi
2:30 AM66 °FClear.5 mph94%30.07 "Hg10 mi
2:00 AM66 °FClear.3 mph94%30.07 "Hg10 mi
1:30 AM68 °FClear.3 mph88%30.07 "Hg10 mi
1:00 AM66 °FClear.5 mph94%30.07 "Hg10 mi
12:30 AM68 °FClear.3 mph88%30.07 "Hg10 mi
12:00 AM68 °FClear.3 mph83%30.07 "Hg10 mi
11:30 PM
Sun, Jul 24
68 °FClear.6 mph88%30.07 "Hg10 mi
11:00 PM68 °FPassing clouds.6 mph88%30.09 "HgN/A
10:30 PM70 °FPassing clouds.2 mph83%30.09 "HgN/A
10:00 PM70 °FSprinkles. Passing clouds.8 mph83%30.07 "HgN/A
9:30 PM70 °FSprinkles. Passing clouds.8 mph83%30.07 "HgN/A
9:00 PM70 °FSprinkles. Passing clouds.3 mph83%30.07 "HgN/A
8:30 PM72 °FSunny.6 mph78%30.07 "Hg10 mi
8:00 PM72 °FSunny.5 mph78%30.07 "Hg10 mi
7:30 PM72 °FLight rain. Clear.5 mph83%30.07 "HgN/A
7:00 PM73 °FLight rain. Clear.6 mph74%30.07 "HgN/A
6:30 PM73 °FSunny.7 mph74%30.07 "Hg10 mi
6:00 PM73 °FLight rain. Clear.7 mph74%30.07 "HgN/A
Weather by CustomWeather, © 2016

See weather overviewHow to use our weather pages